#timestamp,LO_Frequency,Hit,StdDev 
1626264015.3,286047000.7,N
1626264035.1,286047000.7,N
1626264055.9,286047000.3,N
1626264075.7,286047000.2,N
1626264095.5,286047000.9,N
1626264115.4,286046998.5,N
1626264135.2,286046998.2,N
1626264155.1,286046998.4,N
1626264156.0,286046998.4,N
1626264175.8,286046999.2,N
1626264195.6,286046996.7,N
1626264215.5,286046996.5,N
1626264235.3,286046996.7,N
1626264255.1,286046997.4,N
1626264275.9,286046995.4,N
1626264295.7,286046995.3,N
1626264315.6,286046997.4,N
1626264335.4,286046995.1,N
1626264355.2,286046995.5,N
1626264375.1,286046993.5,N
1626264376.0,286046993.5,N
1626264395.8,286046993.7,N
1626264415.6,286046994.4,N
1626264435.5,286046992.4,Y
1626264455.3,286046993.9,P
1626264475.2,286046994.6,N
1626264495.9,286046992.9,P
1626264515.7,286046993.2,Y
1626264535.6,286046995.9,P
1626264555.4,286046993.4,P
1626264575.2,286046995.8,P
1626264595.1,286046995.2,Y
1626264596.0,286046995.2,P
1626264615.8,286047001.0,P
1626264635.7,286046998.2,N
1626264655.5,286047001.2,N
1626264675.3,286047000.9,N
1626264695.2,286046998.5,N
1626264715.0,286046998.6,N
1626264715.9,286047011.9,Y
1626264735.8,286046999.9,P
1626264755.6,286047002.8,P
1626264775.4,286047000.4,N
1626264795.3,286047001.8,N
1626264815.1,286047001.8,N
1626264816.0,286047001.8,N
1626264835.8,286047003.6,N
1626264855.7,286047001.7,N
1626264875.5,286047004.0,N
1626264895.3,286047001.8,N
1626264915.2,286047001.9,N
1626264935.0,286047003.8,N
1626264935.9,286047003.8,N
1626264955.8,286047003.5,N
1626264975.6,286047003.1,N
1626264995.4,286047003.2,N
1626265015.3,286047003.6,N
1626265035.1,286047006.0,Y
1626265055.9,286047001.4,P
1626265075.7,286047001.8,P
1626265095.5,286047001.9,P
1626265115.4,286047001.8,Y
1626265135.2,286047001.2,P
1626265155.0,286047001.1,P
1626265155.9,286047001.1,P
1626265175.8,286047001.1,Y
1626265195.6,286047000.4,P
1626265215.5,286047000.9,N
1626265235.3,286047000.4,N
1626265255.1,286047002.4,Y
1626265275.9,286047000.9,P
1626265295.7,286047000.4,P
1626265315.5,286047001.2,P
1626265335.4,286047000.9,Y
1626265355.2,286046998.8,P
1626265375.1,286046998.4,N
1626265376.0,286046998.4,N
1626265395.8,286046999.3,N
1626265415.7,286046996.9,Y
1626265435.5,286046998.7,P
1626265455.3,286046998.8,P
1626265475.2,286046996.6,P
1626265495.0,286046999.1,N
1626265495.9,286046999.1,N
1626265515.7,286047001.0,N
1626265535.6,286046998.2,N
1626265555.4,286046998.1,N
1626265575.3,286047001.0,N
1626265595.1,286047000.5,N
1626265596.0,286047000.5,N
1626265615.8,286047000.6,N
1626265635.7,286047001.2,N
1626265655.5,286046999.9,N
1626265675.3,286046998.3,N
1626265695.2,286047000.7,N
1626265715.0,286047000.3,N
1626265715.9,286047000.3,N
1626265735.8,286047000.9,N
1626265755.6,286046998.8,N
1626265775.4,286046998.6,N
1626265795.3,286047000.9,N
1626265815.1,286046998.6,N
1626265835.9,286046998.9,N
1626265855.7,286047001.2,N
1626265875.5,286047000.4,N
1626265895.4,286046998.2,N
1626265915.2,286046998.2,N
1626265935.0,286047000.8,N
1626265955.8,286047011.9,Y
1626265975.7,286047000.8,P
1626265995.5,286047001.1,N
1626266015.4,286046998.2,N
1626266035.2,286046998.2,N
1626266055.0,286047001.2,N
1626266055.9,286047001.2,N
1626266075.8,286046998.3,N
1626266095.6,286047000.4,N
1626266115.5,286047000.3,N
1626266135.3,286047001.6,N
1626266155.1,286047002.2,N
1626266175.9,286047004.4,Y
1626266195.7,286047003.9,P
1626266215.5,286047004.3,N
1626266235.4,286047001.8,N
1626266255.2,286047002.3,N
1626266275.1,286046999.9,N
1626266276.0,286046999.9,N
1626266295.8,286047002.7,N
1626266315.6,286047001.9,N
1626266335.5,286047002.5,N
1626266355.3,286047000.2,N
1626266375.1,286047001.1,N
1626266395.9,286047000.0,N
1626266415.7,286047000.4,N
1626266435.6,286047000.1,N
1626266455.4,286046999.7,N
1626266475.2,286047002.0,N
1626266495.1,286047001.5,N
1626266496.0,286047001.5,N
1626266515.8,286047001.3,N
1626266535.6,286047003.8,N
1626266555.5,286047002.7,N
1626266575.3,286046999.8,N
1626266595.2,286047000.3,N
1626266615.9,286047000.6,N
1626266635.7,286047000.2,N
1626266655.6,286047000.3,N
1626266675.4,286047002.4,N
1626266695.2,286047000.2,N
1626266715.1,286047000.3,N
1626266716.0,286047000.3,N
1626266735.8,286047001.0,N
1626266755.7,286047000.5,N
1626266775.5,286047002.7,N
1626266795.3,286047000.5,N
1626266815.2,286047002.8,N
1626266835.0,286047002.8,N
1626266835.9,286047002.8,N
1626266855.7,286047001.0,N
1626266875.6,286047002.7,N
1626266895.4,286046999.9,N
1626266915.3,286047001.6,N
1626266935.1,286047001.8,N
1626266936.0,286047001.8,N
1626266955.8,286047003.8,Y
1626266975.7,286047002.3,P
1626266995.5,286046999.8,N
1626267015.3,286047000.2,N
1626267035.2,286046999.8,N
1626267055.0,286046999.9,N
1626267055.9,286046999.9,N
1626267075.8,286047001.0,N
1626267095.6,286046998.1,N
1626267115.4,286046998.2,N
1626267135.3,286047002.6,N
1626267155.1,286047003.7,N
1626267175.8,286047003.2,N
1626267195.7,286047003.1,N
1626267215.5,286047005.7,Y
1626267235.4,286047003.4,P
1626267255.2,286047005.8,P
1626267275.0,286047004.6,N
1626267275.9,286047004.6,N
1626267295.8,286047007.2,Y
1626267315.6,286047004.2,P
1626267335.4,286047003.4,P
1626267355.3,286047003.5,P
1626267375.1,286047003.8,Y
1626267395.9,286046998.1,P
1626267415.7,286046998.1,N
1626267435.6,286046998.2,N
1626267455.4,286046998.6,N
1626267475.2,286046999.5,N
1626267495.1,286046999.4,N
1626267496.0,286046999.4,N
1626267515.8,286046996.7,N
1626267535.6,286046999.6,N
1626267555.5,286046997.0,N
1626267575.3,286046997.6,N
1626267595.2,286046997.7,N
